Time,TemperatureF,DewpointF,PressureIn,WindDirection,WindDirectionDegrees,WindSpeedMPH,WindSpeedGustMPH,Humidity,HourlyPrecipIn,Conditions,Clouds,dailyrainin,SoftwareType,DateUTC
2013-11-08 00:02:00,43.9,33.7,29.92,NW,315,1.1,-999.0,67,-99.99,,,0.00,Acu-Link.com,2013-11-08 05:02:00,
2013-11-08 00:17:00,43.7,33.8,29.92,NE,45,3.7,-999.0,68,-99.99,,,0.00,Acu-Link.com,2013-11-08 05:17:00,
2013-11-08 00:32:00,44.8,33.8,29.92,ENE,67,2.7,-999.0,65,-99.99,,,0.00,Acu-Link.com,2013-11-08 05:32:00,
2013-11-08 00:47:00,45.7,33.8,29.93,ENE,67,3.2,-999.0,63,-99.99,,,0.00,Acu-Link.com,2013-11-08 05:47:00,
2013-11-08 01:02:00,45.9,33.2,29.94,ENE,67,4.7,-999.0,61,-99.99,,,0.00,Acu-Link.com,2013-11-08 06:02:00,
2013-11-08 01:18:00,46.0,33.3,29.95,NE,45,3.7,-999.0,61,-99.99,,,0.00,Acu-Link.com,2013-11-08 06:18:00,
2013-11-08 01:33:00,45.5,33.6,29.95,NNW,337,2.2,-999.0,63,-99.99,,,0.00,Acu-Link.com,2013-11-08 06:33:00,
2013-11-08 01:48:00,44.6,33.2,29.96,WNW,292,2.7,-999.0,64,-99.99,,,0.00,Acu-Link.com,2013-11-08 06:48:00,
2013-11-08 02:03:00,44.1,33.5,29.97,NE,45,3.2,-999.0,66,-99.99,,,0.00,Acu-Link.com,2013-11-08 07:03:00,
2013-11-08 02:18:00,43.7,33.1,29.97,NE,45,4.2,-999.0,66,-99.99,,,0.00,Acu-Link.com,2013-11-08 07:18:00,
2013-11-08 02:33:00,43.3,32.7,29.97,West,270,0.0,-999.0,66,-99.99,,,0.00,Acu-Link.com,2013-11-08 07:33:00,
2013-11-08 02:48:00,43.2,32.6,29.98,NNE,22,2.7,-999.0,66,-99.99,,,0.00,Acu-Link.com,2013-11-08 07:48:00,
2013-11-08 11:01:00,51.6,28.7,30.12,South,180,2.2,-999.0,41,-99.99,,,0.00,Acu-Link.com,2013-11-08 16:01:00,
2013-11-08 11:17:00,51.6,28.1,30.11,NNW,337,2.7,-999.0,40,-99.99,,,0.00,Acu-Link.com,2013-11-08 16:17:00,
2013-11-08 11:32:00,53.1,27.5,30.11,SSE,157,1.7,-999.0,37,-99.99,,,0.00,Acu-Link.com,2013-11-08 16:32:00,
2013-11-08 11:47:00,54.1,27.7,30.10,West,270,1.7,-999.0,36,-99.99,,,0.00,Acu-Link.com,2013-11-08 16:47:00,
2013-11-08 12:02:00,53.8,27.5,30.10,NNE,22,3.7,-999.0,36,-99.99,,,0.00,Acu-Link.com,2013-11-08 17:02:00,
2013-11-08 12:17:00,54.0,25.6,30.08,NNW,337,5.3,-999.0,33,-99.99,,,0.00,Acu-Link.com,2013-11-08 17:17:00,
2013-11-08 12:33:00,54.3,25.8,30.08,NW,315,2.7,-999.0,33,-99.99,,,0.00,Acu-Link.com,2013-11-08 17:33:00,
2013-11-08 12:48:00,55.4,22.9,30.07,North,0,6.8,-999.0,28,-99.99,,,0.00,Acu-Link.com,2013-11-08 17:48:00,
2013-11-08 13:03:00,55.0,23.3,30.07,West,270,2.7,-999.0,29,-99.99,,,0.00,Acu-Link.com,2013-11-08 18:03:00,
2013-11-08 13:18:00,55.8,24.0,30.06,NNW,337,2.2,-999.0,29,-99.99,,,0.00,Acu-Link.com,2013-11-08 18:18:00,
2013-11-08 13:33:00,55.6,24.7,30.05,WNW,292,2.2,-999.0,30,-99.99,,,0.00,Acu-Link.com,2013-11-08 18:33:00,
2013-11-08 13:48:00,55.4,26.0,30.05,NNE,22,2.2,-999.0,32,-99.99,,,0.00,Acu-Link.com,2013-11-08 18:48:00,
2013-11-08 14:03:00,55.9,25.7,30.05,ENE,67,2.2,-999.0,31,-99.99,,,0.00,Acu-Link.com,2013-11-08 19:03:00,
2013-11-08 14:19:00,55.9,24.9,30.05,NNW,337,4.7,-999.0,30,-99.99,,,0.00,Acu-Link.com,2013-11-08 19:19:00,
2013-11-08 14:34:00,55.9,24.9,30.05,NNW,337,6.8,-999.0,30,-99.99,,,0.00,Acu-Link.com,2013-11-08 19:34:00,
2013-11-08 14:49:00,56.1,25.1,30.04,East,90,0.0,-999.0,30,-99.99,,,0.00,Acu-Link.com,2013-11-08 19:49:00,
2013-11-08 15:04:00,55.9,24.9,30.05,NNE,22,4.7,-999.0,30,-99.99,,,0.00,Acu-Link.com,2013-11-08 20:04:00,
2013-11-08 15:19:00,55.9,25.7,30.04,North,0,2.7,-999.0,31,-99.99,,,0.00,Acu-Link.com,2013-11-08 20:19:00,
2013-11-08 15:34:00,55.9,25.7,30.05,NNW,337,1.7,-999.0,31,-99.99,,,0.00,Acu-Link.com,2013-11-08 20:34:00,
2013-11-08 15:49:00,55.6,24.7,30.05,NNW,337,2.2,-999.0,30,-99.99,,,0.00,Acu-Link.com,2013-11-08 20:49:00,
2013-11-08 16:05:00,55.2,24.3,30.05,SW,225,1.7,-999.0,30,-99.99,,,0.00,Acu-Link.com,2013-11-08 21:05:00,
2013-11-08 16:20:00,54.9,24.8,30.06,ENE,67,2.2,-999.0,31,-99.99,,,0.00,Acu-Link.com,2013-11-08 21:20:00,
2013-11-08 16:35:00,54.3,26.5,30.05,NE,45,2.2,-999.0,34,-99.99,,,0.00,Acu-Link.com,2013-11-08 21:35:00,
2013-11-08 16:50:00,53.2,26.3,30.05,NE,45,1.7,-999.0,35,-99.99,,,0.00,Acu-Link.com,2013-11-08 21:50:00,
2013-11-08 17:05:00,52.5,27.6,30.06,South,180,0.0,-999.0,38,-99.99,,,0.00,Acu-Link.com,2013-11-08 22:05:00,
2013-11-08 17:20:00,51.1,29.4,30.06,ESE,112,0.0,-999.0,43,-99.99,,,0.00,Acu-Link.com,2013-11-08 22:20:00,
2013-11-08 17:36:00,49.3,30.5,30.05,NE,45,1.7,-999.0,48,-99.99,,,0.00,Acu-Link.com,2013-11-08 22:36:00,
2013-11-08 17:51:00,48.0,31.7,30.06,NE,45,0.0,-999.0,53,-99.99,,,0.00,Acu-Link.com,2013-11-08 22:51:00,
2013-11-08 18:06:00,46.6,32.6,30.06,NE,45,0.0,-999.0,58,-99.99,,,0.00,Acu-Link.com,2013-11-08 23:06:00,
2013-11-08 18:21:00,45.3,32.2,30.06,SSE,157,0.0,-999.0,60,-99.99,,,0.00,Acu-Link.com,2013-11-08 23:21:00,
2013-11-08 18:36:00,44.4,32.6,30.07,ENE,67,0.0,-999.0,63,-99.99,,,0.00,Acu-Link.com,2013-11-08 23:36:00,
2013-11-08 18:51:00,43.3,31.6,30.07,ENE,67,0.0,-999.0,63,-99.99,,,0.00,Acu-Link.com,2013-11-08 23:51:00,
2013-11-08 19:07:00,42.6,32.8,30.09,ENE,67,0.0,-999.0,68,-99.99,,,0.00,Acu-Link.com,2013-11-09 00:07:00,
2013-11-08 19:22:00,41.9,32.8,30.09,ENE,67,0.0,-999.0,70,-99.99,,,0.00,Acu-Link.com,2013-11-09 00:22:00,
2013-11-08 19:37:00,42.3,32.1,30.10,NE,45,0.0,-999.0,67,-99.99,,,0.00,Acu-Link.com,2013-11-09 00:37:00,
2013-11-08 19:52:00,42.1,32.3,30.10,SSE,157,1.7,-999.0,68,-99.99,,,0.00,Acu-Link.com,2013-11-09 00:52:00,
2013-11-08 20:07:00,41.4,34.4,30.10,NNE,22,0.0,-999.0,76,-99.99,,,0.00,Acu-Link.com,2013-11-09 01:07:00,
2013-11-08 20:23:00,40.6,33.6,30.11,NNE,22,0.0,-999.0,76,-99.99,,,0.00,Acu-Link.com,2013-11-09 01:23:00,
2013-11-08 20:38:00,40.3,33.7,30.12,South,180,0.0,-999.0,77,-99.99,,,0.00,Acu-Link.com,2013-11-09 01:38:00,
2013-11-08 20:53:00,39.6,31.7,30.11,North,0,0.0,-999.0,73,-99.99,,,0.00,Acu-Link.com,2013-11-09 01:53:00,
2013-11-08 21:08:00,39.4,31.1,30.12,North,0,0.0,-999.0,72,-99.99,,,0.00,Acu-Link.com,2013-11-09 02:08:00,
2013-11-08 21:23:00,38.8,30.2,30.11,North,0,0.0,-999.0,71,-99.99,,,0.00,Acu-Link.com,2013-11-09 02:23:00,
2013-11-08 21:38:00,38.3,30.4,30.12,North,0,0.0,-999.0,73,-99.99,,,0.00,Acu-Link.com,2013-11-09 02:38:00,
2013-11-08 21:54:00,37.8,30.6,30.12,North,0,0.0,-999.0,75,-99.99,,,0.00,Acu-Link.com,2013-11-09 02:54:00,
2013-11-08 22:09:00,37.4,31.2,30.12,North,0,0.0,-999.0,78,-99.99,,,0.00,Acu-Link.com,2013-11-09 03:09:00,
2013-11-08 22:24:00,37.2,31.0,30.13,North,0,1.7,-999.0,78,-99.99,,,0.00,Acu-Link.com,2013-11-09 03:24:00,
2013-11-08 22:39:00,36.9,31.3,30.13,North,0,0.0,-999.0,80,-99.99,,,0.00,Acu-Link.com,2013-11-09 03:39:00,
2013-11-08 22:54:00,36.1,31.4,30.13,NNE,22,2.2,-999.0,83,-99.99,,,0.00,Acu-Link.com,2013-11-09 03:54:00,
2013-11-08 23:10:00,36.0,31.6,30.13,WNW,292,0.0,-999.0,84,-99.99,,,0.00,Acu-Link.com,2013-11-09 04:10:00,
2013-11-08 23:25:00,35.8,30.6,30.12,NNE,22,0.0,-999.0,81,-99.99,,,0.00,Acu-Link.com,2013-11-09 04:25:00,
2013-11-08 23:40:00,35.4,30.5,30.13,SSE,157,0.0,-999.0,82,-99.99,,,0.00,Acu-Link.com,2013-11-09 04:40:00,
2013-11-08 23:55:00,34.7,30.9,30.12,NNE,22,1.1,-999.0,86,-99.99,,,0.00,Acu-Link.com,2013-11-09 04:55:00,